COSMOS 1275 DEB, 13073

Orbit data source: Space-Track

COSMOS 1275 DEB, 13073 is space debris in LEO originally from a launch on Thu, 04 Jun 1981 UTC launched from the Plesetsk Missile And Space Complex (PKMTR). Debris objects in space refer to the collection of defunct objects orbiting the Earth. Examples of debris include non-operational satellites, rocket bodies, and fragments generated from explosions, collisions, or faulty payload assembly.

Loading next visibility...
Identifier
13073, 1981-053EZ
Orbit
LEO
Country
Flag of CISCIS
Related business
Manufacturer
Unknown
Mission
Spacecraft
Bus & Motor
Unknown
Mass
Unknown
Launch date (UTC)
1981-06-04 (44 years ago)
Launch vehicle
Unknown
Launch site
Plesetsk Missile And Space Complex (PKMTR)
Object type
Payload
Rocket body
Debris
Shape & HBR
Unknown shape, 0.1 m
Radar Cross Section
Small (<0.1 m²)

Expand to show TLE details & history
Last TLE update: 13 hours ago

TLE from 13 hours ago
0 COSMOS 1275 DEB
1 13073U 81053EZ  25301.48966793  .00000208  00000-0  20497-3 0  9999
2 13073  82.9344 110.2764 0087904  28.5483  25.7209 13.72366039213556
Epoch: 2025-10-28T11:45Z
TLE epoch observation values (Epoch: 2025-10-28T11:45:07.309Z)
Latitude
54.19881°
Longitude
-93.23739°
Altitude
941.742 km
Speed
7.415 km/s
True Right ascension
08h 00m 28s
True Declination
54° 02' 23"
Sunlit
Object was in daylight at epoch
Visualization orbit readout
Latitude
Unknown
Longitude
Unknown
Altitude
Unknown
Speed
Unknown
Apparent Right ascension
Unknown
Apparent Declination
Unknown
Sunlit
N/A
Visualization observer readout
Local Sidereal Time
20:27:32
Azimuth
Unknown
Elevation
Unknown
Doppler factor
Unknown
Orbital elements
Apogee altitude
1,052.995 km
Perigee altitude
923.488 km
Semi-major axis
7,366.378 km
Eccentricity
0.00879
Inclination
82.9344°
RAAN
110.2764°
Arg. of periapsis
28.5483°
True anomaly
26.16242°
Mean anomaly
25.7209°
Eccentric anomaly
25.94122°
Mean motion
3.43291 °/min
Orbital period
104.87 mins
BSTAR
0.00020497
Loading maneuver chart data...
Computing Atmospheric mass density...
Loading historical data...
Loading historical data...
Loading historical data...
Loading historical data...
Loading historical data...
Loading historical data...
Loading historical data...

Documentation

Showing up to 5 results
|